Weather History for Moriarty, NM

Change the Weather History Date:

Wednesday, September 5, 2012

  Actual Average (KABQ) Record (KABQ)
Temperature  
Mean Temperature 70 °F 73 °F  
Max Temperature 86 °F 84 °F 100 °F (1979)
Min Temperature 54 °F 62 °F 44 °F (1961)
Degree Days  
Heating Degree Days 0 0  
Month to date heating degree days 0  
Since 1 July heating degree days 0  
Cooling Degree Days 5 8  
Month to date cooling degree days 43  
Year to date cooling degree days 1200  
Growing Degree Days 20 (Base 50)    
Moisture  
Dew Point 37 °F    
Average Humidity 32    
Maximum Humidity 58    
Minimum Humidity 15    
Precipitation  
Precipitation 0.00 in 0.04 in 0.47 in (1909)
Month to date precipitation 0.19  
Year to date precipitation 6.47  
Snow  
Snow 0.00 in - - ()
Month to date snowfall  
Since 1 July snowfall  
Since 1 September snowfall  
Snow Depth -    
Sea Level Pressure  
Sea Level Pressure 30.19 in    
Wind  
Wind Speed 6 mph (NNE)    
Max Wind Speed 18 mph    
Max Gust Speed 25 mph    
Visibility 10 miles    
Events      
T = Trace of Precipitation, MM = Missing Value Source: NWS Daily Summary

Daily Weather History Graph

Daily Weather History Graph

Search for Another Location

Airport:

Trip Planner

Search our weather history database for the weather conditions in past years. The results will help you decide how hot, cold, wet, or windy it might be!

Date:

Astronomy

Sep. 05, 2012 Rise Set
Actual Time 6:40 AM MDT 7:24 PM MDT
Civil Twilight 6:14 AM MDT 7:49 PM MDT
Nautical Twilight 5:44 AM MDT 8:20 PM MDT
Astronomical Twilight 5:13 AM MDT 8:51 PM MDT
Moon 10:11 PM MDT (9/5) 11:32 AM MDT (9/5)
Length of Visible Light 13h 35m
Length of Day
12h 44m
Waning Gibbous, 75% of the Moon is Illuminated
Sep 5
Waning Gibbous
Sep 8
Last Quarter
Sep 15
New
Sep 22
First Quarter
Sep 29
Full

Hourly Weather History & Observations

Time (MDT) Temp. Dew Point Humidity Pressure Visibility Wind Dir Wind Speed Gust Speed Precip Events Conditions
12:15 AM 68.2 °F 42.4 °F 39% 30.17 in 10.0 mi Calm Calm - N/A   Clear
12:35 AM 64.4 °F 41.9 °F 44% 30.17 in 10.0 mi SSW 6.9 mph - N/A   Clear
12:55 AM 63.1 °F 42.4 °F 47% 30.18 in 10.0 mi South 6.9 mph - N/A   Clear
1:15 AM 61.3 °F 42.1 °F 49% 30.18 in 10.0 mi SSW 5.8 mph - N/A   Clear
1:35 AM 61.2 °F 42.1 °F 50% 30.17 in 10.0 mi South 5.8 mph - N/A   Clear
1:55 AM 60.6 °F 41.9 °F 50% 30.18 in 10.0 mi South 3.5 mph - N/A   Clear
2:15 AM 58.6 °F 41.2 °F 52% 30.17 in 10.0 mi SE 3.5 mph - N/A   Clear
2:35 AM 56.1 °F 39.9 °F 55% 30.18 in 10.0 mi North 4.6 mph - N/A   Scattered Clouds
2:55 AM 57.2 °F 40.5 °F 54% 30.18 in 10.0 mi NNW 4.6 mph - N/A   Scattered Clouds
3:15 AM 57.2 °F 40.6 °F 54% 30.18 in 10.0 mi Calm Calm - N/A   Clear
3:35 AM 57.6 °F 40.5 °F 53% 30.18 in 10.0 mi Calm Calm - N/A   Clear
3:55 AM 58.3 °F 38.8 °F 48% 30.17 in 10.0 mi North 4.6 mph - N/A   Clear
4:15 AM 57.9 °F 40.1 °F 52% 30.18 in 10.0 mi NE 5.8 mph - N/A   Clear
4:35 AM 57.2 °F 41.0 °F 55% 30.18 in 10.0 mi North 3.5 mph - N/A   Clear
4:55 AM 56.3 °F 40.6 °F 56% 30.17 in 10.0 mi North 4.6 mph - N/A   Clear
5:15 AM 56.7 °F 40.3 °F 54% 30.18 in 10.0 mi Calm Calm - N/A   Clear
5:35 AM 55.6 °F 40.1 °F 56% 30.20 in 10.0 mi SSW 3.5 mph - N/A   Clear
5:55 AM 54.9 °F 39.7 °F 57% 30.19 in 10.0 mi Calm Calm - N/A   Clear
6:15 AM 54.9 °F 40.1 °F 58% 30.19 in 10.0 mi Calm Calm - N/A   Clear
6:35 AM 56.3 °F 40.3 °F 55% 30.20 in 10.0 mi Calm Calm - N/A   Clear
6:55 AM 56.1 °F 39.4 °F 53% 30.20 in 10.0 mi NW 3.5 mph - N/A   Clear
7:15 AM 57.2 °F 40.3 °F 53% 30.20 in 10.0 mi North 4.6 mph - N/A   Scattered Clouds
7:35 AM 59.9 °F 40.3 °F 48% 30.21 in 10.0 mi NW 4.6 mph - N/A   Clear
7:55 AM 61.7 °F 40.1 °F 45% 30.22 in 10.0 mi Calm Calm - N/A   Clear
8:15 AM 64.6 °F 39.7 °F 40% 30.22 in 10.0 mi North 4.6 mph - N/A   Clear
8:35 AM 66.4 °F 40.1 °F 38% 30.23 in 10.0 mi North 5.8 mph - N/A   Scattered Clouds
8:55 AM 69.1 °F 39.7 °F 34% 30.23 in 10.0 mi NNW 6.9 mph - N/A   Scattered Clouds
9:15 AM 76.3 °F 38.5 °F 26% 30.23 in 10.0 mi NW 13.8 mph - N/A   Mostly Cloudy
9:35 AM 78.1 °F 38.3 °F 24% 30.23 in 10.0 mi NW 12.7 mph - N/A   Mostly Cloudy
9:55 AM 80.8 °F 36.7 °F 21% 30.23 in 10.0 mi NNW 15.0 mph 20.7 mph N/A   Clear
10:15 AM 83.5 °F 35.8 °F 18% 30.23 in 10.0 mi NNW 17.3 mph 21.9 mph N/A   Clear
10:35 AM 83.1 °F 33.6 °F 17% 30.23 in 10.0 mi NNW 18.4 mph 21.9 mph N/A   Clear
10:55 AM 84.0 °F 32.7 °F 16% 30.23 in 10.0 mi North 18.4 mph 23.0 mph N/A   Clear
11:15 AM 83.3 °F 32.5 °F 16% 30.23 in 10.0 mi North 17.3 mph 24.2 mph N/A   Clear
11:35 AM 84.6 °F 31.1 °F 15% 30.22 in 10.0 mi North 17.3 mph 23.0 mph N/A   Clear
11:55 AM 83.3 °F 30.6 °F 15% 30.23 in 10.0 mi North 15.0 mph 21.9 mph N/A   Clear
12:15 PM 83.8 °F 31.5 °F 15% 30.23 in 10.0 mi NNW 18.4 mph 25.3 mph N/A   Scattered Clouds
12:35 PM 82.8 °F 35.8 °F 19% 30.22 in 10.0 mi North 11.5 mph - N/A   Mostly Cloudy
12:55 PM 82.8 °F 37.0 °F 20% 30.22 in 10.0 mi NNW 9.2 mph - N/A   Mostly Cloudy
1:15 PM 83.5 °F 37.8 °F 20% 30.22 in 10.0 mi NW 10.4 mph - N/A   Mostly Cloudy
1:35 PM 84.0 °F 38.5 °F 20% 30.21 in 10.0 mi NNE 4.6 mph - N/A   Scattered Clouds
1:55 PM 86.2 °F 41.2 °F 20% 30.21 in 10.0 mi North 9.2 mph - N/A   Scattered Clouds
2:15 PM 84.2 °F 40.3 °F 21% 30.21 in 10.0 mi North 9.2 mph 16.1 mph N/A   Mostly Cloudy
2:35 PM 85.3 °F 38.8 °F 19% 30.20 in 10.0 mi NNE 5.8 mph 9.2 mph N/A   Scattered Clouds
2:55 PM 84.6 °F 37.9 °F 19% 30.19 in 10.0 mi NE 6.9 mph 16.1 mph N/A   Scattered Clouds
3:15 PM 84.6 °F 34.7 °F 17% 30.19 in 10.0 mi NE 5.8 mph - N/A   Scattered Clouds
3:35 PM 84.4 °F 35.2 °F 17% 30.19 in 10.0 mi NE 8.1 mph - N/A   Scattered Clouds
3:55 PM 84.2 °F 35.6 °F 18% 30.18 in 10.0 mi NE 8.1 mph - N/A   Mostly Cloudy
4:15 PM 84.0 °F 35.8 °F 18% 30.18 in 10.0 mi ENE 5.8 mph - N/A   Scattered Clouds
4:35 PM 84.9 °F 35.8 °F 17% 30.17 in 10.0 mi East 6.9 mph - N/A   Scattered Clouds
4:55 PM 84.2 °F 36.5 °F 18% 30.17 in 10.0 mi NE 6.9 mph - N/A   Scattered Clouds
5:15 PM 84.2 °F 37.4 °F 19% 30.16 in 10.0 mi East 4.6 mph - N/A   Scattered Clouds
5:35 PM 84.6 °F 36.5 °F 18% 30.16 in 10.0 mi ENE 6.9 mph - N/A   Scattered Clouds
5:55 PM 82.6 °F 36.5 °F 19% 30.16 in 10.0 mi NE 4.6 mph - N/A   Clear
6:15 PM 84.2 °F 36.7 °F 18% 30.16 in 10.0 mi ENE 3.5 mph - N/A   Clear
6:35 PM 82.0 °F 37.0 °F 20% 30.16 in 10.0 mi NE 4.6 mph - N/A   Clear
6:55 PM 80.2 °F 37.4 °F 21% 30.16 in 10.0 mi Calm Calm - N/A   Scattered Clouds
7:15 PM 79.0 °F 38.1 °F 23% 30.16 in 10.0 mi East 3.5 mph - N/A   Scattered Clouds
7:35 PM 77.9 °F 37.6 °F 23% 30.16 in 10.0 mi East 3.5 mph - N/A   Clear
7:55 PM 76.5 °F 37.8 °F 25% 30.16 in 10.0 mi East 4.6 mph - N/A   Mostly Cloudy
8:15 PM 75.6 °F 39.2 °F 27% 30.16 in 10.0 mi ESE 6.9 mph - N/A   Overcast
8:35 PM 75.6 °F 36.7 °F 24% 30.16 in 10.0 mi ESE 5.8 mph - N/A   Scattered Clouds
8:55 PM 73.6 °F 34.9 °F 24% 30.17 in 10.0 mi SE 5.8 mph - N/A   Clear
9:15 PM 73.4 °F 32.0 °F 22% 30.18 in 10.0 mi SE 9.2 mph - N/A   Clear
9:35 PM 73.9 °F 32.0 °F 21% 30.18 in 10.0 mi SE 8.1 mph - N/A   Scattered Clouds
9:55 PM 71.2 °F 32.4 °F 24% 30.19 in 10.0 mi SSW 3.5 mph - N/A   Scattered Clouds
10:15 PM 69.3 °F 32.4 °F 26% 30.20 in 10.0 mi SSW 6.9 mph - N/A   Clear
10:35 PM 67.6 °F 33.1 °F 28% 30.20 in 10.0 mi WSW 6.9 mph - N/A   Clear
10:55 PM 64.4 °F 33.8 °F 32% 30.21 in 10.0 mi SW 6.9 mph - N/A   Clear
11:15 PM 63.9 °F 33.8 °F 33% 30.22 in 10.0 mi SW 8.1 mph - N/A   Clear
11:35 PM 63.9 °F 33.1 °F 32% 30.22 in 10.0 mi Calm Calm - N/A   Clear
11:55 PM 60.4 °F 32.4 °F 35% 30.23 in 10.0 mi Calm Calm - N/A   Clear